Regional Weather Roundup
Issued by NWS Green Bay, WI

Home | Current Version | Previous Version | Text Only | Print | Product List | Glossary On
Versions: 1 2 3 4 5 6 7 8 9 10 11 12 13 14 15 16 17 18 19 20 21 22 23 24 25 26 27 28 29 30 31 32 33 34 35 36 37 38 39 40 41 42 43 44 45 46 47 48 49 50
000
ASUS43 KGRB 270400
RWRGRB

NORTH-CENTRAL AND NORTHEAST WISCONSIN REGIONAL WEATHER ROUNDUP
NATIONAL WEATHER SERVICE GREEN BAY WI
1100 PM CDT MON JUN 26 2017

WIZ005-009-010>012-018-019-270500-
NORTH CENTRAL WISCONSIN

CITY           SKY/WX    TMP DP  RH WIND       PRES   REMARKS
IRONWOOD       CLOUDY    50  48  93 SW3       30.04S
MANITOWISH WTR NOT AVBL
ARBOR VITAE    NOT AVBL
EAGLE RIVER    NOT AVBL
LAND O LAKES   CLEAR     45  44  97 CALM      30.05S FOG
RHINELANDER    CLEAR     46  46 100 W3        30.06R
PHILLIPS       PTCLDY    50  49  98 CALM      30.06S
ANTIGO         NOT AVBL
TOMAHAWK       NOT AVBL
MERRILL        CLEAR     47  46  97 CALM      30.07S
$$

WIZ013-073-270500-
NORTHEAST WISCONSIN

CITY           SKY/WX    TMP DP  RH WIND       PRES   REMARKS
IRON MOUNTAIN  CLEAR     45  42  89 CALM      30.01R
MARINETTE      CLEAR     51  49  92 W3        30.02F
$$

WIZ017-030-035>037-045-270500-
CENTRAL WISCONSIN

CITY           SKY/WX    TMP DP  RH WIND       PRES   REMARKS
MEDFORD        NOT AVBL
WAUSAU         CLEAR     52  47  83 CALM      30.06R
MOSINEE        NOT AVBL
MARSHFIELD     CLEAR     51  45  79 W6        30.07S
WISC RAPIDS    CLEAR     51  47  86 CALM      30.09R
STEVENS POINT  NOT AVBL
WAUPACA        CLEAR     55  48  80 CALM      30.07R
SHAWANO        NOT AVBL
CLINTONVILLE   PTCLDY    52  45  76 W3        30.05S
WAUTOMA        CLEAR     50  47  89 CALM      30.08S
$$

WIZ038-039-048-051-270500-
FOX VALLEY

CITY           SKY/WX    TMP DP  RH WIND       PRES   REMARKS
NWS GREEN BAY  CLEAR     53  52  96 SW5       30.04S
APPLETON       PTCLDY    54  46  76 SW5       30.04S
OSHKOSH        CLEAR     54  48  80 SW5       30.05F
FOND DU LAC    CLEAR     53  47  79 SW6       30.07S
$$

WIZ022-050-052-270500-
EAST CENTRAL WISCONSIN

CITY           SKY/WX    TMP DP  RH WIND       PRES   REMARKS
EPHRAIM        FAIR      53  48  84 W5        30.01S
WASHINGTON ISL NOT AVBL
STURGEON BAY     N/A     51  50  96 S3          N/A
MANITOWOC      NOT AVBL
SHEBOYGAN      CLEAR     49  49 100 S3        30.06S
$$

LMZ563-521-522-541>543-270500-
LAKESHORE

STATION/POSITION TIME  TEMP    WIND        PRES    VSBY  WAVE
                       AIR SEA DIR/SP/G                  HT/PER
                 (UTC) (F)     (DEG/KT/KT) (MB)    (MI)  (FT/S)
SHEBOYGAN LKSHOR 0300   56     280/  7/  8 1017.7R
KEWAUNEE LKSHORE 0330   53     290/  4/  5 1016.6S
NORTHPORT PIER   0340   56     260/  4/  5 1015.9S
N MID LAKE BUOY  0250   57 56  260/  2/  4 1016.4R         1/ 3
S GREEN BAY BUOY 0330   60     250/  8/ 10 1016.6R
CHAMBERS ISLAND  0330   54     220/  3/  6 1015.9S
MENOMINEE LKSHOR 0324          250/  5/  7 1015.7
$$




USA.gov is the U.S. government's official web portal to all federal, state and local government web resources and services.